Regional Weather Roundup
Issued by NWS Albany, NY

Home | Current Version | Previous Version | Text Only | Print | Product List | Glossary On
Versions: 1 2 3 4 5 6 7 8 9 10 11 12 13 14 15 16 17 18 19 20 21 22 23 24 25 26 27 28 29 30 31 32 33 34 35 36 37 38 39 40 41 42 43 44 45 46 47 48
000
ASUS41 KALY 211710
RWRALY

NEW YORK STATE HOURLY WEATHER ROUNDUP
NATIONAL WEATHER SERVICE ALBANY NY
1200 PM EST SUN DEC 21 2014

NOTE: "FAIR" INDICATES FEW OR NO CLOUDS BELOW 12,000 FEET WITH NO
SIGNIFICANT WEATHER AND/OR NO OBSTRUCTIONS TO VISIBILITY.

NYZ032-033-038>043-046>054-057>066-NYZ062>081-211800-
EAST


CITY           SKY/WX    TMP DP  RH WIND       PRES   REMARKS
ALBANY         FLURRIES  29  23  78 N6        30.34F WCI  23
GLENS FALLS    CLOUDY    26  22  84 CALM      30.34F
POUGHKEEPSIE   LGT SNOW  32  27  81 N6        30.31F WCI  26
NEWBURGH       CLOUDY    30  28  93 N6        30.31F WCI  24
MONTGOMERY     CLOUDY    31  26  82 NE5       30.29F WCI  26
WHITE PLAINS   CLOUDY    32  27  81 N8        30.26F WCI  25
ISLIP          CLOUDY    35  30  82 NW8       30.26F WCI  29
NEW YORK CITY  CLOUDY    33  27  78 N7        30.30F WCI  27
CENTRAL PARK   CLOUDY    33  25  72 VRB5      30.32F WCI  29
$$

NYZ005>009-017-018-044>046-055-056-211800-
CENTRAL


CITY           SKY/WX    TMP DP  RH WIND       PRES   REMARKS
FULTON         CLOUDY    30  24  78 S5        30.31F WCI  25
SYRACUSE       FLURRIES  30  25  81 CALM      30.32F
ROME           CLOUDY    31  22  69 CALM      30.34F
ELMIRA         CLOUDY    32  22  66 CALM      30.29F
BINGHAMTON     CLOUDY    27  20  75 N3        30.24F
MONTICELLO     CLOUDY    28  25  86 NW7       30.26F WCI  21
$$

NYZ026>034-041>043-211800-
NORTH


CITY           SKY/WX    TMP DP  RH WIND       PRES   REMARKS
WATERTOWN      CLOUDY    31  22  69 CALM      30.32F
FORT DRUM      NOT AVBL
MASSENA        CLOUDY    19  15  84 E7        30.37F WCI  10
SARANAC LAKE   CLOUDY    22  18  85 SW10      30.23F WCI  11
PLATTSBURGH    CLOUDY    22  18  85 E7        30.34F WCI  13
$$

NYZ001>004-010>016-019>021-211800-
WEST


CITY           SKY/WX    TMP DP  RH WIND       PRES   REMARKS
NIAGARA FALLS  MOSUNNY   33  23  66 NW6       30.30F WCI  28
BUFFALO        MOSUNNY   33  22  63 SW7       30.29F WCI  27
DUNKIRK        CLOUDY    32  23  69 SW5       30.31F WCI  27
JAMESTOWN      CLOUDY    27  21  80 CALM      30.25F
WELLSVILLE     CLOUDY    26  22  84 NW5       30.24F WCI  20
ROCHESTER      PTSUNNY   34  22  61 W6        30.30F WCI  29
PENN YAN       PTSUNNY   33  21  61 NW7       30.29F WCI  27
$$

             KEY
       WCI = WIND CHILL INDEX
       VSB = VISIBILITY
       HX  = HEAT INDEX
$$


USA.gov is the U.S. government's official web portal to all federal, state and local government web resources and services.